When you browse on this site, cookies collect data to enhance your experience and personalize the content and advertising you see.
Visit our Privacy Policy to learn more. By continuing to use the site, you agree to this use of cookies and data.
  • In Latvia
  • List of Countries
  • For 7 days
  • Water Temperature
  • Satellite Maps
  • Weather Map
  • Weather Widgets
  • user-avatar
    Login

    Hourly Weather Dahnovici

    Today, 21 March, Thursday

    Time Temperature Precipitation Wind Pressure Humidity
    00:00 +5°C° 0 mm 3 mps 757 mmHg 64%
    01:00 +4°C° 0 mm 3 mps 757 mmHg 65%
    02:00 +4°C° 0 mm 2 mps 757 mmHg 66%
    03:00 +4°C° 0 mm 2 mps 757 mmHg 66%
    04:00 +4°C° 0 mm 2 mps 757 mmHg 66%
    05:00 +3°C° 0 mm 2 mps 757 mmHg 67%
    06:00 +4°C° 0 mm 2 mps 757 mmHg 64%
    07:00 +5°C° 0 mm 2 mps 757 mmHg 61%
    08:00 +4°C° 0 mm 3 mps 757 mmHg 58%
    09:00 +7°C° 0 mm 3 mps 757 mmHg 52%
    10:00 +7°C° 0 mm 4 mps 757 mmHg 47%
    11:00 +8°C° 0 mm 4 mps 757 mmHg 41%
    12:00 +10°C° 0 mm 4 mps 756 mmHg 40%
    13:00 +10°C° 0 mm 4 mps 756 mmHg 39%
    14:00 +10°C° 0 mm 5 mps 755 mmHg 39%
    15:00 +10°C° 0 mm 5 mps 755 mmHg 39%
    16:00 +10°C° 0 mm 5 mps 755 mmHg 39%
    17:00 +10°C° 0 mm 5 mps 754 mmHg 39%
    18:00 +10°C° 0 mm 4 mps 755 mmHg 43%
    19:00 +9°C° 0 mm 3 mps 755 mmHg 47%
    20:00 +8°C° 0 mm 2 mps 755 mmHg 51%
    21:00 +8°C° 0 mm 2 mps 755 mmHg 52%
    22:00 +8°C° 0 mm 2 mps 755 mmHg 54%
    23:00 +7°C° 0 mm 2 mps 755 mmHg 56%

    Tomorrow, 22 March, Friday

    Time Temperature Precipitation Wind Pressure Humidity
    00:00 +7°C° 0 mm 2 mps 755 mmHg 61%
    01:00 +7°C° 0 mm 2 mps 755 mmHg 66%
    02:00 +7°C° 0 mm 2 mps 755 mmHg 71%
    03:00 +7°C° 0 mm 2 mps 755 mmHg 74%
    04:00 +7°C° 0 mm 2 mps 755 mmHg 77%
    05:00 +7°C° 0 mm 2 mps 755 mmHg 80%
    06:00 +7°C° 0 mm 3 mps 755 mmHg 78%
    07:00 +7°C° 0 mm 4 mps 754 mmHg 76%
    08:00 +7°C° 0 mm 5 mps 754 mmHg 74%
    09:00 +8°C° 0 mm 5 mps 754 mmHg 69%
    10:00 +9°C° 0 mm 5 mps 754 mmHg 63%
    11:00 +11°C° 0 mm 6 mps 754 mmHg 58%
    12:00 +11°C° 0 mm 6 mps 754 mmHg 57%
    13:00 +13°C° 0 mm 6 mps 753 mmHg 56%
    14:00 +14°C° 0 mm 7 mps 753 mmHg 56%
    15:00 +12°C° 0 mm 7 mps 752 mmHg 60%
    16:00 +12°C° 0 mm 7 mps 752 mmHg 63%
    17:00 +11°C° 0 mm 7 mps 752 mmHg 67%
    18:00 +11°C° 0 mm 7 mps 752 mmHg 66%
    19:00 +10°C° 0 mm 7 mps 752 mmHg 64%
    20:00 +10°C° 0 mm 7 mps 752 mmHg 63%
    21:00 +10°C° 0 mm 7 mps 753 mmHg 61%
    22:00 +10°C° 0 mm 7 mps 753 mmHg 60%
    23:00 +9°C° 0 mm 6 mps 753 mmHg 58%

    Day after tomorrow, 23 March, Saturday

    Time Temperature Precipitation Wind Pressure Humidity
    00:00 +8°C° 0 mm 6 mps 753 mmHg 60%
    01:00 +7°C° 0 mm 5 mps 753 mmHg 61%
    02:00 +6°C° 0 mm 4 mps 753 mmHg 63%
    03:00 +5°C° 0 mm 4 mps 752 mmHg 60%
    04:00 +3°C° 0 mm 5 mps 752 mmHg 57%
    05:00 +2°C° 0 mm 5 mps 752 mmHg 53%
    06:00 +2°C° 0 mm 6 mps 752 mmHg 51%
    07:00 +3°C° 0 mm 7 mps 752 mmHg 48%
    08:00 +2°C° 0 mm 8 mps 752 mmHg 46%
    09:00 +4°C° 0 mm 8 mps 752 mmHg 42%
    10:00 +5°C° 0 mm 8 mps 752 mmHg 38%
    11:00 +6°C° 0 mm 8 mps 752 mmHg 34%
    12:00 +7°C° 0 mm 8 mps 751 mmHg 33%
    13:00 +7°C° 0 mm 8 mps 751 mmHg 32%
    14:00 +9°C° 0 mm 8 mps 751 mmHg 31%
    15:00 +9°C° 0 mm 8 mps 751 mmHg 32%
    16:00 +9°C° 0 mm 8 mps 751 mmHg 32%
    17:00 +9°C° 0 mm 8 mps 751 mmHg 33%
    18:00 +8°C° 0 mm 6 mps 751 mmHg 38%
    19:00 +7°C° 0 mm 5 mps 751 mmHg 43%
    20:00 +7°C° 0 mm 3 mps 751 mmHg 48%
    21:00 +5°C° 0 mm 3 mps 752 mmHg 51%
    22:00 +5°C° 0 mm 2 mps 752 mmHg 54%
    23:00 +5°C° 0 mm 2 mps 752 mmHg 58%

    24 March, Sunday

    Time Temperature Precipitation Wind Pressure Humidity
    00:00 +4°C° 0 mm 2 mps 752 mmHg 59%
    01:00 +4°C° 0 mm 2 mps 752 mmHg 61%
    02:00 +4°C° 0 mm 2 mps 752 mmHg 62%
    03:00 +3°C° 0 mm 2 mps 751 mmHg 63%
    04:00 +4°C° 0 mm 1 mps 751 mmHg 64%
    05:00 +4°C° 0 mm 1 mps 751 mmHg 65%
    06:00 +5°C° 0 mm 1 mps 751 mmHg 61%
    07:00 +6°C° 0 mm 1 mps 751 mmHg 57%
    08:00 +6°C° 0 mm 1 mps 751 mmHg 53%
    09:00 +8°C° 0 mm 1 mps 751 mmHg 46%
    10:00 +9°C° 0 mm 2 mps 751 mmHg 39%
    11:00 +10°C° 0 mm 2 mps 750 mmHg 32%
    12:00 +13°C° 0 mm 2 mps 750 mmHg 29%
    13:00 +13°C° 0 mm 3 mps 749 mmHg 26%
    14:00 +14°C° 0 mm 3 mps 749 mmHg 24%
    15:00 +14°C° 0 mm 3 mps 749 mmHg 24%
    16:00 +14°C° 0 mm 3 mps 748 mmHg 25%
    17:00 +14°C° 0 mm 3 mps 748 mmHg 26%
    18:00 +14°C° 0 mm 3 mps 748 mmHg 31%
    19:00 +13°C° 0 mm 3 mps 748 mmHg 37%
    20:00 +13°C° 0 mm 2 mps 748 mmHg 42%
    21:00 +11°C° 0 mm 3 mps 748 mmHg 51%
    22:00 +10°C° 0 mm 3 mps 748 mmHg 61%
    23:00 +10°C° 0 mm 4 mps 748 mmHg 70%

    25 March, Monday

    Time Temperature Precipitation Wind Pressure Humidity
    00:00 +9°C° 0 mm 3 mps 748 mmHg 73%
    01:00 +8°C° 0 mm 2 mps 748 mmHg 76%
    02:00 +8°C° 0 mm 1 mps 747 mmHg 79%
    03:00 +8°C° 0 mm 1 mps 747 mmHg 81%
    04:00 +7°C° 0 mm 1 mps 747 mmHg 82%
    05:00 +7°C° 0 mm 1 mps 746 mmHg 84%
    06:00 +6°C° 0 mm 2 mps 746 mmHg 81%
    07:00 +7°C° 0 mm 3 mps 746 mmHg 78%
    08:00 +7°C° 0 mm 3 mps 746 mmHg 75%
    09:00 +8°C° 0.6 mm 3 mps 745 mmHg 73%
    10:00 +8°C° 0.6 mm 3 mps 745 mmHg 71%
    11:00 +8°C° 0.6 mm 3 mps 744 mmHg 69%
    12:00 +8°C° 0.3 mm 4 mps 744 mmHg 67%
    13:00 +9°C° 0.3 mm 5 mps 743 mmHg 65%
    14:00 +10°C° 0.3 mm 5 mps 742 mmHg 63%
    15:00 +9°C° 0.6 mm 5 mps 742 mmHg 66%
    16:00 +9°C° 0.6 mm 5 mps 741 mmHg 69%
    17:00 +9°C° 0.6 mm 5 mps 741 mmHg 71%
    18:00 +7°C° 0 mm 4 mps 741 mmHg 75%
    19:00 +6°C° 0 mm 4 mps 741 mmHg 79%
    20:00 +4°C° 0 mm 3 mps 741 mmHg 83%
    21:00 +4°C° 0 mm 3 mps 740 mmHg 85%
    22:00 +4°C° 0 mm 2 mps 740 mmHg 87%
    23:00 +5°C° 0 mm 1 mps 740 mmHg 89%

    26 March, Tuesday

    Time Temperature Precipitation Wind Pressure Humidity
    00:00 +5°C° 0 mm 1 mps 740 mmHg 89%
    01:00 +4°C° 0 mm 2 mps 740 mmHg 90%
    02:00 +4°C° 0 mm 2 mps 740 mmHg 90%
    03:00 +5°C° 0 mm 2 mps 740 mmHg 87%
    04:00 +4°C° 0 mm 3 mps 740 mmHg 84%
    05:00 +4°C° 0 mm 4 mps 740 mmHg 81%
    06:00 +5°C° 0 mm 4 mps 740 mmHg 76%
    07:00 +5°C° 0 mm 4 mps 740 mmHg 71%
    08:00 +5°C° 0 mm 4 mps 740 mmHg 66%
    09:00 +6°C° 0 mm 4 mps 740 mmHg 62%
    10:00 +7°C° 0 mm 4 mps 740 mmHg 58%
    11:00 +8°C° 0 mm 3 mps 740 mmHg 54%
    12:00 +9°C° 0 mm 3 mps 740 mmHg 51%
    13:00 +9°C° 0 mm 2 mps 740 mmHg 47%
    14:00 +11°C° 0 mm 1 mps 739 mmHg 44%
    15:00 +9°C° 0.5 mm 2 mps 739 mmHg 49%
    16:00 +8°C° 0.5 mm 3 mps 739 mmHg 55%
    17:00 +6°C° 0.5 mm 4 mps 739 mmHg 60%
    18:00 +5°C° 0.6 mm 5 mps 740 mmHg 63%
    19:00 +5°C° 0.6 mm 5 mps 740 mmHg 66%
    20:00 +3°C° 0.6 mm 5 mps 741 mmHg 69%
    21:00 +2°C° 0 mm 5 mps 741 mmHg 69%
    22:00 +2°C° 0 mm 5 mps 741 mmHg 69%
    23:00 +1°C° 0 mm 4 mps 741 mmHg 69%
    Show more